Port Aransas, TX (PTAT2)

Conditions for Tuesday

Daily
Weekly
Monthly
Marine Data Graph

Marine & Boating Location Search

Enter a coastal zip code for marine weather.

General Information

Location: 27.828 -97.05
Buoy Type: C-MAN Station
Payload: MARS payload
Owned by: NDBC
Windspeed: Measured by obtained from anemometer
Sea Surface: Measured by Intake
Note:

Weather and Wave Data

Time Temp Humidity Wind Pressure
  Air
(°F)
Water
(°F)
  Dir Speed
(kts)
Speed
(mph)
Atmo.
(in)
Tend.
(in)
20:00 76 78 84 South 11.0 12.7 29.99 +0.02
21:00 76 78 83 South 13.0 15.0 30.00 +0.03
22:00 76 77 86 South 12.0 13.8 30.00 +0.02
23:00 76 77 88 South 11.0 12.7 30.00 +0.01
00:00 76 78 89 SSW 9.0 10.4 30.00 -
01:00 75 77 87 WSW 5.0 5.8 29.99 -0.01
02:00 73 77 83 NW 17.0 19.6 30.03 +0.03
03:00 71 77 71 North 9.0 10.4 30.02 +0.03
04:00 73 77 55 NNE 15.0 17.3 30.04 +0.05
05:00 73 77 54 NNE 20.0 23.0 30.06 +0.03
06:00 73 76 54 NE 17.0 19.6 30.08 +0.05
07:00 70 76 68 NNE 16.0 18.4 30.10 +0.05
08:00 71 76 55 NNE 16.0 18.4 30.12 +0.06
09:00 72 75 45 NE 14.0 16.1 30.13 +0.05
10:00 73 75 40 NNE 12.0 13.8 30.14 +0.04
12:00 72 76 39 NE 11.0 12.7 30.13 -
13:00 73 76 31 NE 12.0 13.8 30.11 -0.03
14:00 73 76 34 NE 10.0 11.5 30.09 -0.04
15:00 73 76 31 NE 8.0 9.2 30.09 -0.04
16:00 73 76 34 East 9.0 10.4 30.09 -0.02
17:00 73 76 34 East 8.0 9.2 30.09 -
18:00 73 76 34 East 6.0 6.9 30.10 -
19:00 73 76 35 ESE 5.0 5.8 30.12 +0.03
20:00 73 76 34 ESE 4.0 4.6 30.13 +0.04
21:00 73 75 35 SE 6.0 6.9 30.13 +0.03
22:00 74 75 35 SE 7.0 8.1 30.13 +0.01
23:00 74 75 37 ESE 6.0 6.9 30.13 -
00:00 74 75 38 SE 6.0 6.9 30.13 -
01:00 74 75 38 SE 4.0 4.6 30.12 -0.01
02:00 73 75 40 SSE 5.0 5.8 30.12 -0.01
03:00 73 75 43 SSE 4.0 4.6 30.10 -0.03

Detailed Wave Spectra